#timestamp,LO_Frequency,Hit,StdDev 
1502640015.5,286047000.8,N,1.2
1502640035.4,286047000.2,N,1.2
1502640055.2,286047000.1,N,1.1
1502640075.1,286047000.3,N,1.1
1502640076.0,286047000.3,N,1.0
1502640095.8,286047000.5,N,1.0
1502640115.6,286047000.5,N,1.0
1502640135.5,286047000.4,N,1.0
1502640155.3,286047000.5,N,1.0
1502640175.1,286047002.7,N,1.1
1502640195.9,286047000.2,N,1.1
1502640215.7,286047002.8,N,1.2
1502640235.6,286047002.4,N,1.3
1502640255.4,286047002.8,N,1.3
1502640275.2,286047000.1,N,1.3
1502640295.1,286046999.7,N,1.3
1502640296.0,286046999.7,N,1.3
1502640315.8,286047002.4,N,1.3
1502640335.7,286047001.9,N,1.3
1502640355.5,286047002.1,N,1.3
1502640375.3,286047002.2,N,1.3
1502640395.2,286047002.3,N,1.3
1502640415.0,286047000.1,N,1.3
1502640415.9,286047000.1,N,1.2
1502640435.8,286047002.6,N,1.2
1502640455.6,286046999.8,N,1.2
1502640475.4,286047001.0,N,1.2
1502640495.3,286047002.8,N,1.2
1502640515.1,286047002.8,N,1.1
1502640535.9,286047001.6,N,1.1
1502640555.7,286047002.6,N,1.2
1502640575.5,286047002.6,N,1.2
1502640595.4,286047002.3,N,1.2
1502640615.2,286047002.5,N,1.1
1502640635.1,286047001.9,N,1.1
1502640636.0,286047001.9,N,1.1
1502640655.8,286047001.9,N,1.1
1502640675.6,286046999.7,N,1.1
1502640695.5,286047002.3,N,1.1
1502640715.3,286047002.4,N,1.1
1502640735.2,286047002.8,N,1.1
1502640755.9,286047001.9,N,1.1
1502640775.7,286047002.7,N,1.1
1502640795.6,286047001.5,N,1.1
1502640815.4,286047002.4,N,1.0
1502640835.3,286047002.7,N,1.0
1502640855.1,286047002.1,N,0.9
1502640856.0,286047002.1,N,0.9
1502640875.8,286047002.3,N,0.9
1502640895.7,286047002.0,N,0.9
1502640915.5,286047002.4,N,0.9
1502640935.4,286047002.2,N,0.9
1502640955.2,286047002.6,N,0.8
1502640975.0,286047002.5,N,0.8
1502640975.9,286047002.5,Y,0.0
1502640995.8,286047000.9,P,0.6
1502641015.6,286047000.7,N,0.6
1502641035.5,286047000.9,N,0.6
1502641055.3,286047000.7,N,0.5
1502641075.1,286047000.9,N,0.5
1502641095.9,286047000.8,N,0.5
1502641115.7,286047000.4,N,0.5
1502641135.6,286047000.7,N,0.4
1502641155.4,286046999.7,N,0.6
1502641175.2,286047000.1,N,0.6
1502641195.1,286047000.3,N,0.6
1502641196.0,286047000.3,N,0.5
1502641215.8,286047000.5,N,0.5
1502641235.7,286047000.9,N,0.5
1502641255.5,286047000.4,N,0.5
1502641275.3,286046999.9,N,0.5
1502641295.2,286047000.4,N,0.5
1502641315.0,286047000.1,N,0.5
1502641315.9,286047000.1,N,0.5
1502641335.8,286047000.4,N,0.5
1502641355.6,286047001.0,N,0.5
1502641375.4,286047000.6,N,0.5
1502641395.3,286047000.3,N,0.5
1502641415.1,286047000.8,N,0.5
1502641435.9,286046998.1,Y,0.0
1502641455.7,286047001.0,P,0.2
1502641475.5,286046998.1,P,1.3
1502641495.4,286046998.4,N,1.3
1502641515.2,286046998.8,N,1.2
1502641535.1,286046999.1,N,1.1
1502641536.0,286046999.1,N,1.0
1502641555.8,286046997.1,N,1.2
1502641575.6,286046996.8,N,1.3
1502641595.5,286046997.3,N,1.3
1502641615.3,286046995.0,Y,0.0
1502641635.2,286046997.1,P,0.8
1502641655.9,286046997.2,P,0.7
1502641675.7,286046996.7,P,0.7
1502641695.6,286046997.7,Y,0.0
1502641715.4,286046998.1,P,0.3
1502641735.3,286046998.5,P,0.5
1502641755.1,286046999.3,N,0.7
1502641756.0,286046999.3,N,0.7
1502641775.8,286046999.4,N,0.7
1502641795.7,286046998.2,N,0.7
1502641815.5,286046999.0,N,0.7
1502641835.3,286046998.3,N,0.6
1502641855.2,286046998.2,N,0.6
1502641875.0,286046998.3,N,0.6
1502641875.9,286046998.3,N,0.6
1502641895.8,286046999.1,N,0.6
1502641915.6,286046999.6,N,0.6
1502641935.4,286046996.7,Y,0.0
1502641955.3,286046998.8,P,0.1
1502641975.1,286046998.1,P,0.3
1502641995.9,286046999.2,N,0.4
1502642015.7,286046998.9,N,0.4
1502642035.5,286046996.9,Y,0.0
1502642055.4,286047001.2,P,1.2
1502642075.2,286046998.5,N,1.2
1502642095.1,286046998.4,N,1.2
1502642096.0,286046998.4,N,1.1
1502642115.8,286046998.4,N,1.0
1502642135.6,286046998.2,N,1.0
1502642155.5,286046998.3,N,0.9
1502642175.3,286046998.7,N,0.9
1502642195.2,286046999.4,N,0.9
1502642215.9,286046999.0,N,0.8
1502642235.7,286046998.2,N,0.8
1502642255.6,286046999.0,N,0.8
1502642275.4,286046999.2,N,0.8
1502642295.3,286046996.5,Y,0.0
1502642315.1,286047001.2,P,1.2
1502642335.8,286046998.4,N,1.2
1502642355.7,286046996.6,N,1.6
1502642375.5,286046998.8,N,1.5
1502642395.4,286047000.4,N,1.5
1502642415.2,286046998.8,N,1.4
1502642435.0,286046999.5,N,1.3
1502642435.9,286046999.5,N,1.2
1502642455.8,286046996.8,N,1.4
1502642475.7,286046996.7,N,1.4
1502642495.5,286046997.2,N,1.4
1502642515.3,286046997.0,N,1.4
1502642535.2,286046999.4,N,1.4
1502642555.0,286046997.3,N,1.4
1502642555.9,286046997.3,N,1.4
1502642575.8,286046997.5,N,1.3
1502642595.6,286046996.7,N,1.4
1502642615.4,286046999.2,N,1.3
1502642635.3,286046996.5,N,1.4
1502642655.1,286046997.7,N,1.3
1502642675.8,286046997.5,N,1.3
1502642695.7,286046997.6,N,1.3
1502642715.5,286046997.2,N,1.3
1502642735.4,286046997.1,N,1.3
1502642755.2,286046997.4,N,1.2
1502642775.0,286046996.5,N,1.3
1502642775.9,286046996.5,N,1.3
1502642795.8,286046996.6,N,1.3
1502642815.6,286046999.6,N,1.3
1502642835.5,286046996.5,N,1.3
1502642855.3,286041774.3,Y,0.0
1502642875.1,286046998.1,P,0.1
1502642895.9,286046998.2,P,0.2
1502642915.7,286046998.4,P,0.2
1502642935.6,286046998.2,Y,0.0
1502642955.4,286047002.4,P,2.1
1502642975.2,286047002.3,N,2.0
1502642995.1,286046999.9,N,1.8
1502642996.0,286046999.9,N,1.6
1502643015.8,286047000.2,N,1.5
1502643035.7,286046999.9,N,1.4
1502643055.5,286047002.8,N,1.5
1502643075.3,286046999.8,N,1.5
1502643095.2,286047000.1,N,1.4
1502643115.0,286047002.7,N,1.5
1502643115.9,286047002.7,N,1.5
1502643135.8,286047002.1,N,1.5
1502643155.6,286046999.7,N,1.5
1502643175.4,286047000.2,N,1.4
1502643195.3,286047000.1,N,1.4
1502643215.1,286046999.7,N,1.4
1502643235.9,286047002.2,N,1.4
1502643255.7,286047002.5,N,1.4
1502643275.5,286047002.7,N,1.4
1502643295.4,286047002.5,N,1.4
1502643315.2,286047002.6,N,1.4
1502643335.1,286047002.3,N,1.4
1502643336.0,286047002.3,N,1.4
1502643355.8,286047002.4,N,1.4
1502643375.6,286047002.7,N,1.4
1502643395.5,286047002.0,N,1.4
1502643415.3,286047004.0,N,1.4
1502643435.1,286047003.9,N,1.5
1502643455.9,286047003.8,N,1.5
1502643475.7,286047003.1,N,1.4
1502643495.6,286047003.6,N,1.4
1502643515.4,286047003.4,N,1.4
1502643535.2,286047003.5,N,1.4
1502643555.1,286047006.0,Y,0.0
1502643556.0,286047006.0,P,2.0
1502643575.8,286047002.0,N,1.9
1502643595.7,286047002.3,N,1.7
